Location: Caltech
(34.1382°N, 118.1253°W)
Time: 09:06:43
(UTC-08:00)

BREEZE M DEB (TANK) - Visible Passes

Search period start: 11 December 2017 00:00
Search period end: 21 December 2017 00:00
Orbit: 340 x 13670 km, 49.6° (Epoch: 10 December)

Date Brightness Start Highest point End Pass type
(mag) Time Alt. Az. Time Alt. Az. Time Alt. Az.
11 Dec 9.2 01:19:40 10° SSW 03:12:54 89° NW 04:09:30 10° NE visible
11 Dec 9.4 22:40:00 10° SSE 00:11:35 50° E 01:19:03 10° NE visible
12 Dec 8.7 03:16:37 10° SW 05:24:03 67° NNW 05:57:44 10° ENE visible
12 Dec 9.8 21:01:31 10° E 21:33:39 13° E 22:00:58 10° ENE visible
13 Dec 9.3 00:20:30 10° SSW 02:05:37 80° ESE 03:10:28 10° NE visible
13 Dec 7.9 05:39:11 10° W 07:28:08 59° N 07:45:02 10° E visible
13 Dec 9.4 21:48:11 10° SSE 23:12:13 39° E 00:17:01 10° NE visible
14 Dec 9.0 02:11:43 10° SW 04:14:22 74° NW 04:59:23 10° ENE visible
14 Dec 9.3 23:23:01 10° S 01:00:46 68° ESE 02:10:51 10° NE visible
15 Dec 8.3 04:20:19 10° WSW 06:24:17 61° N 06:47:12 10° ENE visible
15 Dec 9.4 21:01:37 10° SE 22:14:44 28° E 23:12:25 10° NE visible
16 Dec 9.1 01:09:47 10° SSW 03:03:48 84° NW 04:00:41 10° NE visible
16 Dec 9.3 22:27:13 10° S 23:58:23 56° ESE 01:10:24 10° NE visible
17 Dec 8.6 03:09:03 10° WSW 05:17:33 64° NNW 05:49:03 10° ENE visible
17 Dec 9.6 20:26:41 10° ESE 21:19:01 18° E 22:01:52 10° ENE visible
18 Dec 9.2 00:09:56 10° SSW 01:54:47 86° ESE 03:01:34 10° NE visible
18 Dec 7.8 05:39:26 11° W 07:20:36 62° N 07:36:17 10° E visible
18 Dec 9.3 21:33:36 10° SSE 22:58:19 44° E 00:08:45 10° NE visible
19 Dec 8.9 02:02:56 10° SW 04:07:29 71° NNW 04:50:37 10° ENE visible
19 Dec 9.3 23:11:45 10° S 00:48:31 74° ESE 02:01:54 10° NE visible
20 Dec 8.2 04:52:14 25° W 06:17:16 61° N 06:38:27 10° E visible
20 Dec 9.3 20:43:34 10° SE 22:01:42 33° E 23:05:04 10° NE visible
